| time (UTC) | temp F | wind direction | speed MPH | gust MPH | rain 1hr in | rain 24hr in | rain mn in | humidity % | barometer mb |
| 20260504042532 | 60 | 161 | 1.0 | 3.0 | 0.00 | 0.00 | 0.00 | 67 | 1018.7 |
| 20260504041527 | 60 | 148 | 2.0 | 5.0 | 0.00 | 0.00 | 0.00 | 67 | 1018.8 |
| 20260504040523 | 60 | 148 | 1.0 | 3.0 | 0.00 | 0.00 | 0.00 | 67 | 1018.6 |
| 20260504035517 | 60 | 152 | 1.0 | 2.0 | 0.00 | 0.00 | 0.00 | 66 | 1018.8 |
| 20260504034533 | 60 | 147 | 1.0 | 3.0 | 0.00 | 0.00 | 0.00 | 65 | 1018.8 |
| 20260504033528 | 61 | 157 | 2.0 | 5.0 | 0.00 | 0.00 | 0.00 | 65 | 1018.7 |
| 20260504032523 | 60 | 153 | 1.0 | 3.0 | 0.00 | 0.00 | 0.00 | 65 | 1018.8 |
| 20260504031518 | 60 | 149 | 2.0 | 4.0 | 0.00 | 0.00 | 0.00 | 65 | 1018.8 |
| 20260504030533 | 61 | 157 | 1.0 | 4.0 | 0.00 | 0.00 | 0.00 | 64 | 1018.8 |
| 20260504025528 | 61 | 154 | 2.0 | 4.0 | 0.00 | 0.00 | 0.00 | 65 | 1018.8 |
| 20260504024523 | 61 | 145 | 1.0 | 3.0 | 0.00 | 0.00 | 0.00 | 64 | 1018.7 |
| 20260504023518 | 61 | 165 | 2.0 | 4.0 | 0.00 | 0.00 | 0.00 | 64 | 1018.7 |
| 20260504022534 | 61 | 158 | 1.0 | 4.0 | 0.00 | 0.00 | 0.00 | 64 | 1018.9 |
| 20260504021529 | 61 | 163 | 3.0 | 8.0 | 0.00 | 0.00 | 0.00 | 64 | 1018.8 |
| 20260504020524 | 61 | 168 | 1.0 | 4.0 | 0.00 | 0.00 | 0.00 | 64 | 1018.7 |
| 20260504015519 | 60 | 158 | 1.0 | 4.0 | 0.00 | 0.00 | 0.00 | 64 | 1018.5 |
| 20260504014534 | 60 | 158 | 1.0 | 6.0 | 0.00 | 0.00 | 0.00 | 64 | 1018.4 |
| 20260504013529 | 60 | 160 | 2.0 | 5.0 | 0.00 | 0.00 | 0.00 | 65 | 1018.4 |
| 20260504012525 | 59 | 154 | 2.0 | 4.0 | 0.00 | 0.00 | 0.00 | 66 | 1018.3 |
| 20260504011520 | 59 | 153 | 2.0 | 4.0 | 0.00 | 0.00 | 0.00 | 65 | 1018.0 |
| 20260504010535 | 59 | 156 | 1.0 | 4.0 | 0.00 | 0.00 | 0.00 | 66 | 1018.1 |
| 20260504005530 | 59 | 154 | 1.0 | 3.0 | 0.00 | 0.00 | 0.00 | 65 | 1017.9 |
| 20260504004525 | 59 | 145 | 1.0 | 2.0 | 0.00 | 0.00 | 0.00 | 63 | 1017.8 |
| 20260504003520 | 60 | 154 | 1.0 | 2.0 | 0.00 | 0.00 | 0.00 | 63 | 1017.7 |
| 20260504002536 | 60 | 163 | 1.0 | 2.0 | 0.00 | 0.00 | 0.00 | 63 | 1017.7 |
| 20260504001531 | 60 | 161 | 1.0 | 3.0 | 0.00 | 0.00 | 0.00 | 62 | 1017.6 |
| 20260504000526 | 60 | 152 | 1.0 | 2.0 | 0.00 | 0.00 | 0.00 | 61 | 1017.4 |
| 20260503235521 | 61 | 144 | 2.0 | 4.0 | 0.00 | 0.00 | 0.00 | 60 | 1017.4 |
| 20260503234536 | 61 | 140 | 2.0 | 5.0 | 0.00 | 0.00 | 0.00 | 59 | 1017.3 |
| 20260503233531 | 61 | 148 | 1.0 | 3.0 | 0.00 | 0.00 | 0.00 | 57 | 1017.1 |
| 20260503232524 | 62 | 165 | 3.0 | 8.0 | 0.00 | 0.00 | 0.00 | 56 | 1017.0 |
| 20260503231519 | 62 | 165 | 2.0 | 5.0 | 0.00 | 0.00 | 0.00 | 56 | 1017.0 |
| 20260503230534 | 62 | 172 | 2.0 | 5.0 | 0.00 | 0.00 | 0.00 | 55 | 1016.8 |
| 20260503225529 | 62 | 163 | 2.0 | 6.0 | 0.00 | 0.00 | 0.00 | 56 | 1016.8 |
| 20260503224525 | 63 | 155 | 1.0 | 8.0 | 0.00 | 0.00 | 0.00 | 54 | 1016.9 |
| 20260503223520 | 63 | 174 | 2.0 | 4.0 | 0.00 | 0.00 | 0.00 | 53 | 1016.9 |
| 20260503222536 | 63 | 173 | 2.0 | 7.0 | 0.00 | 0.00 | 0.00 | 54 | 1017.0 |
| 20260503221531 | 64 | 182 | 2.0 | 5.0 | 0.00 | 0.00 | 0.00 | 52 | 1016.9 |
| 20260503220526 | 64 | 180 | 4.0 | 9.0 | 0.00 | 0.00 | 0.00 | 52 | 1016.9 |
| 20260503215522 | 64 | 185 | 3.0 | 8.0 | 0.00 | 0.01 | 0.00 | 53 | 1016.8 |
| 20260503214516 | 64 | 173 | 3.0 | 11.0 | 0.00 | 0.01 | 0.00 | 51 | 1016.9 |
| 20260503213532 | 65 | 185 | 4.0 | 9.0 | 0.00 | 0.02 | 0.00 | 49 | 1016.8 |
| 20260503212527 | 67 | 192 | 2.0 | 7.0 | 0.00 | 0.02 | 0.00 | 45 | 1016.8 |
| 20260503211522 | 68 | 180 | 1.0 | 3.0 | 0.00 | 0.03 | 0.00 | 39 | 1016.7 |
| 20260503210517 | 68 | 9 | 2.0 | 7.0 | 0.00 | 0.06 | 0.00 | 37 | 1016.6 |
| 20260503205532 | 69 | 271 | 1.0 | 2.0 | 0.00 | 0.07 | 0.00 | 36 | 1016.6 |
| 20260503204527 | 69 | 301 | 2.0 | 5.0 | 0.00 | 0.07 | 0.00 | 38 | 1016.5 |
| 20260503203522 | 69 | 347 | 2.0 | 4.0 | 0.00 | 0.07 | 0.00 | 37 | 1016.6 |
| 20260503202517 | 69 | 335 | 1.0 | 3.0 | 0.00 | 0.07 | 0.00 | 36 | 1016.8 |
| 20260503201533 | 70 | 336 | 2.0 | 4.0 | 0.00 | 0.07 | 0.00 | 36 | 1017.1 |
| 20260503200528 | 70 | 262 | 2.0 | 4.0 | 0.00 | 0.07 | 0.00 | 36 | 1017.3 |
| 20260503195523 | 69 | 350 | 2.0 | 4.0 | 0.00 | 0.07 | 0.00 | 36 | 1017.3 |
| 20260503194518 | 69 | 342 | 1.0 | 4.0 | 0.00 | 0.07 | 0.00 | 37 | 1017.4 |
| 20260503193534 | 70 | 339 | 3.0 | 5.0 | 0.00 | 0.07 | 0.00 | 36 | 1017.7 |
| 20260503192529 | 70 | 303 | 2.0 | 4.0 | 0.00 | 0.07 | 0.00 | 37 | 1017.7 |
| 20260503191524 | 69 | 305 | 1.0 | 3.0 | 0.00 | 0.07 | 0.00 | 38 | 1017.8 |
| 20260503190519 | 68 | 349 | 2.0 | 6.0 | 0.00 | 0.07 | 0.00 | 38 | 1017.8 |
| 20260503185535 | 69 | 311 | 3.0 | 8.0 | 0.00 | 0.08 | 0.00 | 38 | 1018.0 |
| 20260503184530 | 68 | 322 | 2.0 | 4.0 | 0.00 | 0.09 | 0.00 | 37 | 1017.9 |
| 20260503183525 | 69 | 312 | 2.0 | 5.0 | 0.00 | 0.10 | 0.00 | 37 | 1018.2 |
| 20260503182520 | 69 | 299 | 2.0 | 4.0 | 0.00 | 0.10 | 0.00 | 37 | 1018.2 |
| 20260503181535 | 68 | 350 | 2.0 | 6.0 | 0.00 | 0.11 | 0.00 | 37 | 1018.5 |
| 20260503180530 | 68 | 341 | 2.0 | 5.0 | 0.00 | 0.12 | 0.00 | 39 | 1018.5 |
| 20260503175525 | 68 | 175 | 2.0 | 4.0 | 0.00 | 0.12 | 0.00 | 38 | 1018.7 |
| 20260503174520 | 68 | 166 | 2.0 | 5.0 | 0.00 | 0.12 | 0.00 | 38 | 1018.8 |
| 20260503173535 | 67 | 342 | 2.0 | 4.0 | 0.00 | 0.13 | 0.00 | 39 | 1018.8 |
| 20260503172530 | 67 | 1 | 2.0 | 5.0 | 0.00 | 0.13 | 0.00 | 39 | 1018.7 |
| 20260503171525 | 66 | 340 | 2.0 | 6.0 | 0.00 | 0.13 | 0.00 | 37 | 1018.7 |
| 20260503170521 | 66 | 348 | 3.0 | 6.0 | 0.00 | 0.14 | 0.00 | 39 | 1018.9 |
| 20260503150522 | 61 | 49 | 4.0 | 6.0 | 0.00 | 0.35 | 0.00 | 42 | 1019.9 |
| 20260503130524 | 53 | 23 | 2.0 | 4.0 | 0.00 | 0.45 | 0.00 | 78 | 1019.3 |
| 20260503110527 | 46 | 47 | 1.0 | 4.0 | 0.00 | 0.47 | 0.00 | 97 | 1017.8 |
| 20260503081524 | 49 | 49 | 2.0 | 4.0 | 0.00 | 0.58 | 0.00 | 97 | 1015.9 |
| 20260503080519 | 49 | 45 | 2.0 | 3.0 | 0.00 | 0.58 | 0.00 | 97 | 1015.9 |
| 20260503072520 | 50 | 71 | 1.0 | 3.0 | 0.00 | 0.58 | 0.00 | 97 | 1015.6 |
| 20260503071535 | 50 | 56 | 2.0 | 3.0 | 0.00 | 0.58 | 0.00 | 97 | 1015.5 |
| 20260503070530 | 50 | 77 | 2.0 | 4.0 | 0.00 | 0.58 | 0.00 | 97 | 1015.4 |
| 20260503054531 | 51 | 62 | 1.0 | 3.0 | 0.00 | 0.58 | 0.00 | 97 | 1014.9 |
| 20260503053526 | 51 | 44 | 2.0 | 5.0 | 0.00 | 0.58 | 0.00 | 97 | 1014.8 |
| 20260503052522 | 51 | 55 | 2.0 | 4.0 | 0.00 | 0.58 | 0.00 | 97 | 1014.8 |
| 20260503051516 | 51 | 101 | 2.0 | 5.0 | 0.00 | 0.58 | 0.00 | 97 | 1014.7 |
| 20260503050531 | 51 | 36 | 2.0 | 4.0 | 0.00 | 0.59 | 0.00 | 97 | 1014.7 |
| 20260503045526 | 51 | 27 | 2.0 | 6.0 | 0.00 | 0.59 | 0.00 | 97 | 1014.5 |
| 20260503044522 | 51 | 15 | 2.0 | 4.0 | 0.00 | 0.59 | 0.00 | 97 | 1014.5 |
| 20260503043517 | 51 | 98 | 2.0 | 5.0 | 0.00 | 0.59 | 0.00 | 97 | 1014.2 |